sat.trackr.live / text

‹ back to catalog

STARLINK-31406

NORAD 59017 · 2024-036V

PAYLOAD ACTIVE UNKNOWN

§ Identity

Operator
Country
US
Launch date
2024-02-23
Launch site
AFWTR
Launch vehicle
Mass (kg)
RCS (m²)

Purposes: comms

External: N2YO · Heavens-Above · Gunter

§ Orbital elements

Epoch: 2026-05-25T04:32:38.141376Z

Period
93.85 min
Inclination
53.1614°
Eccentricity
0.0001256
Mean motion
15.34391476 rev/d
Perigee alt
461.9 km
Apogee alt
463.6 km
Semi-major
6,840.9 km
B*
2.1813e-5
RAAN
68.7452°
Arg perigee
81.3875°
Mean anomaly
278.7270°
Rev number
12,723

§ Raw data

STARLINK-314061 59017U 24036V   26145.18933034  .00000361  00000+0  21813-4 0  99942 59017  53.1614  68.7452 0001256  81.3875 278.7270 15.34391476127233

JSON: /api/v1/satellites/59017 · /tle

For live sub-satellite position, see the globe view (requires WebGL).

§ Visibility from observer

Set your observer location to see the next 7 days of passes ≥ 10°. The values pass through the URL so the page stays shareable.

No JS? Fill the form by hand. The geolocation button needs JavaScript.